TimePST,TemperatureF,Dew PointF,Humidity,Sea Level PressureIn,VisibilityMPH,Wind Direction,Wind SpeedMPH,Gust SpeedMPH,PrecipitationIn,Events,Conditions,WindDirDegrees,DateUTC
12:48 AM,71.6,-9999,N/A,29.96,6.0,NW,6.9,-,N/A,,Haze,310,2013-01-26 08:48:00
12:53 AM,69.1,-9999,N/A,29.95,8.0,NW,8.1,-,N/A,,Overcast,320,2013-01-26 08:53:00
1:01 AM,71.6,-9999,N/A,29.96,10.0,NW,8.1,-,N/A,,Overcast,310,2013-01-26 09:01:00
1:53 AM,70.0,-9999,N/A,29.94,10.0,NW,9.2,-,N/A,,Overcast,320,2013-01-26 09:53:00
2:13 AM,68.0,55.4,64,29.95,4.0,NW,12.7,-,N/A,,Haze,310,2013-01-26 10:13:00
2:33 AM,66.2,55.4,68,29.95,5.0,NW,16.1,-,N/A,,Haze,310,2013-01-26 10:33:00
2:53 AM,66.9,55.0,66,29.93,5.0,NW,12.7,-,N/A,,Haze,310,2013-01-26 10:53:00
3:08 AM,66.2,53.6,64,29.93,3.0,WNW,11.5,-,N/A,,Haze,300,2013-01-26 11:08:00
3:53 AM,68.0,55.0,63,29.91,9.0,WNW,11.5,-,N/A,,Overcast,300,2013-01-26 11:53:00
4:10 AM,66.2,53.6,64,29.92,6.0,WNW,12.7,-,N/A,,Haze,300,2013-01-26 12:10:00
4:19 AM,66.2,53.6,64,29.92,2.5,WNW,12.7,-,N/A,,Haze,300,2013-01-26 12:19:00
4:28 AM,66.2,53.6,64,29.92,0.8,WNW,13.8,-,N/A,,Haze,290,2013-01-26 12:28:00
4:37 AM,66.2,53.6,64,29.92,1.5,WNW,12.7,-,N/A,,Haze,300,2013-01-26 12:37:00
4:51 AM,66.2,53.6,64,29.93,0.2,WNW,15.0,-,N/A,,Haze,300,2013-01-26 12:51:00
4:53 AM,66.0,54.0,65,29.91,0.2,WNW,15.0,-,N/A,,Haze,300,2013-01-26 12:53:00
5:53 AM,66.0,54.0,65,29.92,0.2,WNW,11.5,-,N/A,,Haze,300,2013-01-26 13:53:00
6:16 AM,66.2,53.6,64,29.93,2.0,WNW,13.8,-,N/A,,Haze,290,2013-01-26 14:16:00
6:20 AM,66.2,53.6,64,29.93,1.8,WNW,12.7,-,N/A,,Haze,290,2013-01-26 14:20:00
6:29 AM,66.2,53.6,64,29.94,0.2,WNW,11.5,-,N/A,,Haze,290,2013-01-26 14:29:00
6:53 AM,66.0,54.0,65,29.92,0.5,West,10.4,-,N/A,,Haze,280,2013-01-26 14:53:00
6:59 AM,66.2,53.6,64,29.93,2.0,WNW,9.2,-,N/A,,Haze,290,2013-01-26 14:59:00
7:06 AM,66.2,53.6,64,29.93,5.0,WNW,8.1,-,N/A,,Haze,290,2013-01-26 15:06:00
7:25 AM,69.8,53.6,56,29.93,6.0,WNW,9.2,-,N/A,,Haze,300,2013-01-26 15:25:00
7:53 AM,70.0,-9999,N/A,29.92,9.0,WNW,5.8,-,N/A,,Mostly Cloudy,300,2013-01-26 15:53:00
8:13 AM,64.4,53.6,68,29.94,10.0,NNW,5.8,-,N/A,,Mostly Cloudy,330,2013-01-26 16:13:00
8:37 AM,75.2,57.2,53,29.95,10.0,WNW,5.8,-,N/A,,Scattered Clouds,290,2013-01-26 16:37:00
8:53 AM,57.2,55.9,96,29.93,5.0,NW,4.6,-,N/A,,Scattered Clouds,310,2013-01-26 16:53:00
9:53 AM,57.7,54.3,88,29.94,4.0,SW,6.9,-,N/A,,Scattered Clouds,220,2013-01-26 17:53:00
10:13 AM,78.8,57.2,47,29.96,2.5,SW,10.4,-,N/A,,Haze,230,2013-01-26 18:13:00
10:16 AM,77.0,55.4,47,29.96,0.8,SW,10.4,-,N/A,,Haze,230,2013-01-26 18:16:00
10:35 AM,73.4,57.2,57,29.96,2.0,WSW,9.2,-,N/A,,Haze,240,2013-01-26 18:35:00
10:50 AM,75.2,55.4,50,29.96,4.0,West,11.5,-,N/A,,Haze,280,2013-01-26 18:50:00
10:53 AM,73.9,55.9,53,29.94,4.0,West,12.7,-,N/A,,Haze,280,2013-01-26 18:53:00
11:33 AM,71.6,55.4,57,29.95,6.0,West,15.0,-,N/A,,Haze,280,2013-01-26 19:33:00
11:53 AM,61.2,55.9,83,29.93,5.0,West,15.0,-,N/A,,Haze,280,2013-01-26 19:53:00
12:53 PM,61.0,55.9,83,29.91,4.0,WNW,21.9,-,N/A,,Haze,290,2013-01-26 20:53:00
1:53 PM,69.1,55.0,61,29.90,8.0,WNW,20.7,26.5,N/A,,Clear,300,2013-01-26 21:53:00
2:16 PM,66.2,53.6,64,29.93,2.5,WNW,23.0,29.9,N/A,,Haze,290,2013-01-26 22:16:00
2:18 PM,66.2,53.6,64,29.93,1.0,WNW,24.2,29.9,N/A,,Haze,290,2013-01-26 22:18:00
2:26 PM,64.4,53.6,68,29.93,0.8,WNW,20.7,-,N/A,,Haze,300,2013-01-26 22:26:00
2:34 PM,64.4,53.6,68,29.92,1.5,WNW,21.9,28.8,N/A,,Haze,290,2013-01-26 22:34:00
2:41 PM,60.8,53.6,77,29.92,0.2,WNW,23.0,29.9,N/A,Fog,Fog,290,2013-01-26 22:41:00
2:53 PM,56.3,52.2,86,29.91,0.2,WNW,23.0,29.9,N/A,Fog,Fog,290,2013-01-26 22:53:00
3:53 PM,54.3,54.3,100,29.91,0.2,WNW,24.2,-,N/A,Fog,Fog,300,2013-01-26 23:53:00
4:53 PM,54.3,53.1,95,29.91,0.2,WNW,24.2,29.9,N/A,Fog,Fog,300,2013-01-27 00:53:00
5:53 PM,53.8,52.0,94,29.93,0.2,NW,25.3,33.4,N/A,Fog,Fog,310,2013-01-27 01:53:00
6:31 PM,59.0,51.8,77,29.95,2.0,WNW,26.5,35.7,N/A,,Haze,300,2013-01-27 02:31:00
6:38 PM,59.0,51.8,77,29.96,9.0,WNW,25.3,34.5,N/A,,Mostly Cloudy,290,2013-01-27 02:38:00
6:46 PM,59.0,51.8,77,29.96,8.0,WNW,26.5,34.5,N/A,,Scattered Clouds,300,2013-01-27 02:46:00
6:53 PM,59.0,51.1,75,29.94,7.0,WNW,25.3,32.2,N/A,,Partly Cloudy,300,2013-01-27 02:53:00
7:53 PM,59.0,48.9,69,29.95,9.0,WNW,27.6,34.5,N/A,,Clear,300,2013-01-27 03:53:00
8:53 PM,57.9,48.0,70,29.96,10.0,WNW,23.0,31.1,N/A,,Clear,300,2013-01-27 04:53:00
9:48 PM,57.2,48.2,72,29.99,9.0,WNW,21.9,35.7,N/A,,Partly Cloudy,300,2013-01-27 05:48:00
9:53 PM,57.9,48.0,70,29.97,9.0,WNW,20.7,29.9,N/A,,Partly Cloudy,300,2013-01-27 05:53:00
10:53 PM,57.0,46.0,67,29.99,9.0,WNW,24.2,33.4,N/A,,Clear,300,2013-01-27 06:53:00
11:53 PM,57.0,46.0,67,30.00,10.0,NW,26.5,38.0,N/A,,Clear,310,2013-01-27 07:53:00